| time (UTC) | temp F | wind direction | speed MPH | gust MPH | rain 1hr in | rain 24hr in | rain mn in | humidity % | barometer mb |
| 20260504045056 | 66 | 0 | 3.0 | 9.0 | 0.00 | 0.00 | 0.00 | 27 | 1013.0 |
| 20260504044016 | 66 | 0 | 4.0 | 9.0 | 0.00 | 0.00 | 0.00 | 26 | 1013.0 |
| 20260504043056 | 67 | 0 | 5.0 | 10.0 | 0.00 | 0.00 | 0.00 | 25 | 1013.0 |
| 20260504042056 | 67 | 0 | 3.0 | 8.0 | 0.00 | 0.00 | 0.00 | 25 | 1013.2 |
| 20260504041016 | 68 | 0 | 4.0 | 8.0 | 0.00 | 0.00 | 0.00 | 24 | 1013.1 |
| 20260504040016 | 66 | 0 | 5.0 | 11.0 | 0.00 | 0.00 | 0.00 | 26 | 1012.7 |
| 20260504035015 | 63 | 0 | 2.0 | 8.0 | 0.00 | 0.00 | 0.00 | 30 | 1012.2 |
| 20260504034056 | 63 | 0.0 | 0.0 | 0.00 | 0.00 | 0.00 | 29 | 1011.9 | |
| 20260504033015 | 63 | 0 | 0.0 | 3.0 | 0.00 | 0.00 | 0.00 | 29 | 1011.6 |
| 20260504032056 | 64 | 0 | 1.0 | 3.0 | 0.00 | 0.00 | 0.00 | 31 | 1011.6 |
| 20260504031056 | 64 | 0 | 0.0 | 2.0 | 0.00 | 0.00 | 0.00 | 32 | 1011.6 |
| 20260504030056 | 65 | 0 | 0.0 | 1.0 | 0.00 | 0.00 | 0.00 | 32 | 1011.6 |
| 20260504025055 | 66 | 0.0 | 0.0 | 0.00 | 0.00 | 0.00 | 30 | 1011.6 | |
| 20260504024015 | 67 | 0 | 0.0 | 2.0 | 0.00 | 0.00 | 0.00 | 30 | 1011.8 |
| 20260504023015 | 68 | 0 | 1.0 | 2.0 | 0.00 | 0.00 | 0.00 | 29 | 1011.7 |
| 20260504022056 | 69 | 0 | 1.0 | 2.0 | 0.00 | 0.00 | 0.00 | 28 | 1011.7 |
| 20260504021055 | 70 | 0 | 0.0 | 2.0 | 0.00 | 0.00 | 0.00 | 27 | 1011.7 |
| 20260504020055 | 71 | 0 | 1.0 | 4.0 | 0.00 | 0.00 | 0.00 | 26 | 1012.1 |
| 20260504013055 | 73 | 0 | 3.0 | 11.0 | 0.00 | 0.00 | 0.00 | 23 | 1012.0 |
| 20260504012015 | 74 | 0 | 3.0 | 13.0 | 0.00 | 0.00 | 0.00 | 22 | 1011.9 |
| 20260504011055 | 74 | 0 | 6.0 | 16.0 | 0.00 | 0.00 | 0.00 | 20 | 1012.0 |
| 20260504010015 | 75 | 0 | 5.0 | 14.0 | 0.00 | 0.00 | 0.00 | 19 | 1011.8 |
| 20260504005015 | 75 | 0 | 6.0 | 14.0 | 0.00 | 0.00 | 0.00 | 18 | 1011.9 |
| 20260504004055 | 75 | 0 | 7.0 | 17.0 | 0.00 | 0.00 | 0.00 | 18 | 1011.9 |
| 20260504003015 | 76 | 0 | 5.0 | 12.0 | 0.00 | 0.00 | 0.00 | 18 | 1012.1 |
| 20260504002055 | 76 | 0 | 4.0 | 12.0 | 0.00 | 0.00 | 0.00 | 17 | 1012.0 |
| 20260504001015 | 77 | 0 | 6.0 | 13.0 | 0.00 | 0.00 | 0.00 | 16 | 1012.1 |
| 20260504000135 | 77 | 0 | 6.0 | 14.0 | 0.00 | 0.00 | 0.00 | 16 | 1012.3 |
| 20260503235135 | 77 | 0 | 5.0 | 12.0 | 0.00 | 0.00 | 0.00 | 17 | 1012.5 |
| 20260503234015 | 77 | 0 | 8.0 | 16.0 | 0.00 | 0.00 | 0.00 | 17 | 1012.6 |
| 20260503233015 | 77 | 0 | 7.0 | 15.0 | 0.00 | 0.00 | 0.00 | 17 | 1012.9 |
| 20260503232015 | 78 | 0 | 5.0 | 17.0 | 0.00 | 0.00 | 0.00 | 17 | 1013.1 |
| 20260503231015 | 78 | 0 | 7.0 | 14.0 | 0.00 | 0.00 | 0.00 | 17 | 1013.0 |
| 20260503230135 | 78 | 0 | 6.0 | 12.0 | 0.00 | 0.00 | 0.00 | 17 | 1013.2 |
| 20260503224135 | 78 | 0 | 9.0 | 17.0 | 0.00 | 0.00 | 0.00 | 17 | 1013.6 |
| 20260503223015 | 77 | 0 | 8.0 | 20.0 | 0.00 | 0.00 | 0.00 | 17 | 1013.4 |
| 20260503222015 | 78 | 0 | 7.0 | 19.0 | 0.00 | 0.00 | 0.00 | 17 | 1013.9 |
| 20260503221015 | 78 | 0 | 7.0 | 18.0 | 0.00 | 0.00 | 0.00 | 18 | 1014.0 |
| 20260503220015 | 77 | 0 | 6.0 | 14.0 | 0.00 | 0.00 | 0.00 | 20 | 1014.4 |
| 20260503214015 | 79 | 0 | 8.0 | 14.0 | 0.00 | 0.00 | 0.00 | 18 | 1014.8 |
| 20260503211055 | 78 | 0 | 6.0 | 18.0 | 0.00 | 0.00 | 0.00 | 21 | 1015.7 |
| 20260503210015 | 78 | 0 | 5.0 | 14.0 | 0.00 | 0.00 | 0.00 | 22 | 1016.1 |
| 20260503205055 | 77 | 0 | 6.0 | 18.0 | 0.00 | 0.00 | 0.00 | 22 | 1016.1 |
| 20260503204017 | 77 | 0 | 8.0 | 14.0 | 0.00 | 0.00 | 0.00 | 22 | 1016.4 |
| 20260503203057 | 77 | 0 | 8.0 | 18.0 | 0.00 | 0.00 | 0.00 | 21 | 1016.7 |
| 20260503202057 | 77 | 0 | 4.0 | 11.0 | 0.00 | 0.00 | 0.00 | 21 | 1016.8 |
| 20260503200017 | 77 | 0 | 4.0 | 13.0 | 0.00 | 0.00 | 0.00 | 21 | 1017.6 |
| 20260503195017 | 77 | 0 | 6.0 | 16.0 | 0.00 | 0.00 | 0.00 | 21 | 1017.9 |
| 20260503194137 | 76 | 0 | 5.0 | 12.0 | 0.00 | 0.00 | 0.00 | 22 | 1017.7 |
| 20260503193017 | 76 | 0 | 5.0 | 11.0 | 0.00 | 0.00 | 0.00 | 22 | 1017.9 |
| 20260503192057 | 76 | 0 | 6.0 | 16.0 | 0.00 | 0.00 | 0.00 | 21 | 1018.0 |
| 20260503190056 | 75 | 0 | 8.0 | 16.0 | 0.00 | 0.00 | 0.00 | 23 | 1018.4 |
| 20260503185056 | 74 | 0 | 7.0 | 13.0 | 0.00 | 0.00 | 0.00 | 24 | 1018.5 |
| 20260503184056 | 73 | 0 | 9.0 | 17.0 | 0.00 | 0.00 | 0.00 | 25 | 1018.4 |
| 20260503183016 | 74 | 0 | 8.0 | 20.0 | 0.00 | 0.00 | 0.00 | 27 | 1018.0 |
| 20260503182057 | 73 | 0 | 7.0 | 17.0 | 0.00 | 0.00 | 0.00 | 29 | 1017.5 |
| 20260503181016 | 73 | 0 | 9.0 | 15.0 | 0.00 | 0.00 | 0.00 | 29 | 1017.7 |
| 20260503174016 | 72 | 0 | 7.0 | 14.0 | 0.00 | 0.00 | 0.00 | 34 | 1018.2 |
| 20260503173016 | 71 | 0 | 5.0 | 13.0 | 0.00 | 0.00 | 0.00 | 33 | 1018.2 |
| 20260503172016 | 71 | 0 | 4.0 | 10.0 | 0.00 | 0.00 | 0.00 | 35 | 1018.4 |
| 20260503171056 | 71 | 0 | 4.0 | 10.0 | 0.00 | 0.00 | 0.00 | 37 | 1018.7 |
| 20260503131136 | 52 | 0 | 2.0 | 4.0 | 0.00 | 0.00 | 0.00 | 69 | 1021.7 |
| 20260503120136 | 48 | 0 | 3.0 | 4.0 | 0.00 | 0.00 | 0.00 | 75 | 1021.0 |
| 20260503090135 | 52 | 0 | 4.0 | 8.0 | 0.00 | 0.00 | 0.00 | 69 | 1022.7 |